Location: Barcelona
(41.3830°N, 2.1830°E)
Time: 22:47:29
(UTC+01:00)

ISS - Pass Details

Date: 15 January 2018
Orbit: 402 x 407 km, 51.6° (Epoch: 23 January)

Event Time Altitude Azimuth Distance (km) Brightness Sun altitude
Exits shadow 05:26:33 12° 87° (E) 1,367 -0.3 -31.2°
Drops below altitude 10° 05:26:50 10° 90° (E) 1,463 -0.1 -31.1°
Sets 05:29:03 0° 101° (E) 2,322 1.2 -30.7°
